Time,TemperatureF,DewpointF,PressureIn,WindDirection,WindDirectionDegrees,WindSpeedMPH,WindSpeedGustMPH,Humidity,HourlyPrecipIn,Conditions,Clouds,dailyrainin,SolarRadiationWatts/m^2,SoftwareType,DateUTC
2013-03-02 00:00:00,37.4,31.2,31.22,SSE,167,3.0,5.0,78,0.00,,,0.00,0.00,VWS V14.00,2013-03-02 07:00:00,
2013-03-02 00:05:00,37.3,31.1,31.22,SSE,163,4.0,6.0,78,0.00,,,0.00,0.00,VWS V14.00,2013-03-02 07:05:00,
2013-03-02 00:10:00,37.3,31.4,31.22,SSE,153,6.0,7.0,79,0.00,,,0.00,0.00,VWS V14.00,2013-03-02 07:10:00,
2013-03-02 00:15:00,37.5,31.6,31.22,SE,146,9.0,10.0,79,0.00,,,0.00,0.00,VWS V14.00,2013-03-02 07:15:00,
2013-03-02 00:20:00,37.8,31.9,31.22,SSE,155,6.0,9.0,79,0.00,,,0.00,0.00,VWS V14.00,2013-03-02 07:20:00,
2013-03-02 00:25:00,38.1,31.9,31.22,SSE,150,4.0,9.0,78,0.00,,,0.00,0.00,VWS V14.00,2013-03-02 07:25:00,
2013-03-02 00:30:00,38.2,32.0,31.22,SE,146,5.0,9.0,78,0.00,,,0.00,0.00,VWS V14.00,2013-03-02 07:30:00,
2013-03-02 00:35:00,38.3,31.7,31.22,SSE,157,4.0,6.0,77,0.00,,,0.00,0.00,VWS V14.00,2013-03-02 07:35:00,
2013-03-02 00:40:00,38.3,31.7,31.22,SSE,155,3.0,6.0,77,0.00,,,0.00,0.00,VWS V14.00,2013-03-02 07:40:00,
2013-03-02 00:45:00,38.3,31.7,31.21,SSE,153,5.0,7.0,77,0.00,,,0.00,0.00,VWS V14.00,2013-03-02 07:45:00,
2013-03-02 00:50:00,38.3,31.4,31.21,SSE,153,3.0,3.0,76,0.00,,,0.00,0.00,VWS V14.00,2013-03-02 07:50:00,
2013-03-02 00:55:00,38.0,31.1,31.21,SSE,152,2.0,3.0,76,0.00,,,0.00,0.00,VWS V14.00,2013-03-02 07:55:00,
2013-03-02 01:00:00,37.7,30.5,31.21,SSE,153,0.0,3.0,75,0.00,,,0.00,0.00,VWS V14.00,2013-03-02 08:00:00,
2013-03-02 01:05:00,37.4,30.5,31.20,SSE,153,0.0,0.0,76,0.00,,,0.00,0.00,VWS V14.00,2013-03-02 08:05:00,
2013-03-02 01:10:00,37.1,30.6,31.20,SSE,153,0.0,0.0,77,0.00,,,0.00,0.00,VWS V14.00,2013-03-02 08:10:00,
2013-03-02 01:15:00,36.9,30.4,31.21,SSE,152,0.0,2.0,77,0.00,,,0.00,0.00,VWS V14.00,2013-03-02 08:15:00,
2013-03-02 01:20:00,36.8,30.6,31.21,SSE,153,2.0,5.0,78,0.00,,,0.00,0.00,VWS V14.00,2013-03-02 08:20:00,
2013-03-02 01:25:00,36.9,31.0,31.20,SSE,157,6.0,7.0,79,0.00,,,0.00,0.00,VWS V14.00,2013-03-02 08:25:00,
2013-03-02 01:30:00,37.6,31.7,31.20,South,169,8.0,9.0,79,0.00,,,0.00,0.00,VWS V14.00,2013-03-02 08:30:00,
2013-03-02 01:35:00,38.5,31.9,31.20,SSE,165,5.0,6.0,77,0.00,,,0.00,0.00,VWS V14.00,2013-03-02 08:35:00,
2013-03-02 01:40:00,39.1,31.5,31.19,SSE,153,5.0,7.0,74,0.00,,,0.00,0.00,VWS V14.00,2013-03-02 08:40:00,
2013-03-02 01:45:00,39.3,31.7,31.19,SE,140,4.0,9.0,74,0.00,,,0.00,0.00,VWS V14.00,2013-03-02 08:45:00,
2013-03-02 01:50:00,39.2,31.6,31.20,SSE,152,5.0,6.0,74,0.00,,,0.00,0.00,VWS V14.00,2013-03-02 08:50:00,
2013-03-02 01:55:00,39.1,31.5,31.19,SSE,148,7.0,9.0,74,0.00,,,0.00,0.00,VWS V14.00,2013-03-02 08:55:00,
2013-03-02 02:00:00,39.1,31.5,31.20,SSE,148,4.0,9.0,74,0.00,,,0.00,0.00,VWS V14.00,2013-03-02 09:00:00,
2013-03-02 02:05:00,39.1,31.5,31.21,SSE,152,5.0,6.0,74,0.00,,,0.00,0.00,VWS V14.00,2013-03-02 09:05:00,
2013-03-02 02:11:00,39.1,31.5,31.21,SSE,157,6.0,7.0,74,0.00,,,0.00,0.00,VWS V14.00,2013-03-02 09:11:00,
2013-03-02 02:16:00,39.1,31.5,31.20,SSE,151,6.0,7.0,74,0.00,,,0.00,0.00,VWS V14.00,2013-03-02 09:16:00,
2013-03-02 02:21:00,39.1,31.5,31.20,SSE,149,4.0,6.0,74,0.00,,,0.00,0.00,VWS V14.00,2013-03-02 09:21:00,
2013-03-02 02:26:00,39.0,31.1,31.20,SSE,149,4.0,7.0,73,0.00,,,0.00,0.00,VWS V14.00,2013-03-02 09:26:00,
2013-03-02 02:31:00,38.8,31.2,31.20,SE,144,9.0,9.0,74,0.00,,,0.00,0.00,VWS V14.00,2013-03-02 09:31:00,
2013-03-02 02:36:00,38.8,31.2,31.20,SE,145,5.0,11.0,74,0.00,,,0.00,0.00,VWS V14.00,2013-03-02 09:36:00,
2013-03-02 02:41:00,38.7,31.1,31.19,SE,146,5.0,11.0,74,0.00,,,0.00,0.00,VWS V14.00,2013-03-02 09:41:00,
2013-03-02 02:46:00,38.6,31.0,31.19,SSE,148,5.0,11.0,74,0.00,,,0.00,0.00,VWS V14.00,2013-03-02 09:46:00,
2013-03-02 02:51:00,38.5,31.3,31.19,SSE,149,8.0,8.0,75,0.00,,,0.00,0.00,VWS V14.00,2013-03-02 09:51:00,
2013-03-02 02:56:00,38.2,31.0,31.19,SSE,149,5.0,10.0,75,0.00,,,0.00,0.00,VWS V14.00,2013-03-02 09:56:00,
2013-03-02 03:01:00,37.9,31.0,31.19,SE,145,5.0,10.0,76,0.00,,,0.00,0.00,VWS V14.00,2013-03-02 10:01:00,
2013-03-02 03:06:00,37.9,31.0,31.19,SSE,163,4.0,10.0,76,0.00,,,0.00,0.00,VWS V14.00,2013-03-02 10:06:00,
2013-03-02 03:11:00,37.8,30.9,31.18,SSE,165,5.0,10.0,76,0.00,,,0.00,0.00,VWS V14.00,2013-03-02 10:11:00,
2013-03-02 03:16:00,37.8,30.9,31.18,SSE,164,4.0,10.0,76,0.00,,,0.00,0.00,VWS V14.00,2013-03-02 10:16:00,
2013-03-02 03:21:00,37.9,31.0,31.18,SSE,166,4.0,5.0,76,0.00,,,0.00,0.00,VWS V14.00,2013-03-02 10:21:00,
2013-03-02 03:26:00,37.8,30.6,31.18,SSE,167,3.0,5.0,75,0.00,,,0.00,0.00,VWS V14.00,2013-03-02 10:26:00,
2013-03-02 03:31:00,37.6,30.4,31.18,SSE,167,5.0,5.0,75,0.00,,,0.00,0.00,VWS V14.00,2013-03-02 10:31:00,
2013-03-02 03:36:00,37.1,30.2,31.17,SSE,167,3.0,4.0,76,0.00,,,0.00,0.00,VWS V14.00,2013-03-02 10:36:00,
2013-03-02 03:41:00,36.8,30.3,31.18,South,171,3.0,7.0,77,0.00,,,0.00,0.00,VWS V14.00,2013-03-02 10:41:00,
2013-03-02 03:46:00,36.6,30.4,31.17,South,169,5.0,7.0,78,0.00,,,0.00,0.00,VWS V14.00,2013-03-02 10:46:00,
2013-03-02 03:51:00,36.7,32.0,31.17,SSE,157,3.0,5.0,83,0.00,,,0.00,0.00,VWS V14.00,2013-03-02 10:51:00,
2013-03-02 03:56:00,36.7,30.2,31.17,SSE,157,3.0,6.0,77,0.00,,,0.00,0.00,VWS V14.00,2013-03-02 10:56:00,
2013-03-02 04:01:00,36.9,30.4,31.17,SSE,153,2.0,6.0,77,0.00,,,0.00,0.00,VWS V14.00,2013-03-02 11:01:00,
2013-03-02 04:06:00,36.9,30.4,31.18,SSE,153,1.0,4.0,77,0.00,,,0.00,0.00,VWS V14.00,2013-03-02 11:06:00,
2013-03-02 04:11:00,36.8,30.3,31.18,SSE,153,2.0,4.0,77,0.00,,,0.00,0.00,VWS V14.00,2013-03-02 11:11:00,
2013-03-02 04:16:00,36.5,30.0,31.18,SSE,152,5.0,5.0,77,0.00,,,0.00,0.00,VWS V14.00,2013-03-02 11:16:00,
2013-03-02 04:21:00,36.4,30.2,31.17,SSE,152,4.0,6.0,78,0.00,,,0.00,0.00,VWS V14.00,2013-03-02 11:21:00,
2013-03-02 04:26:00,36.3,30.1,31.17,SSE,151,4.0,6.0,78,0.00,,,0.00,0.00,VWS V14.00,2013-03-02 11:26:00,
2013-03-02 04:31:00,36.3,30.1,31.17,SSE,151,3.0,6.0,78,0.00,,,0.00,0.00,VWS V14.00,2013-03-02 11:31:00,
2013-03-02 04:36:00,36.2,30.0,31.17,SSE,149,6.0,7.0,78,0.00,,,0.00,0.00,VWS V14.00,2013-03-02 11:36:00,
2013-03-02 04:41:00,36.1,29.9,31.17,SSE,150,3.0,7.0,78,0.00,,,0.00,0.00,VWS V14.00,2013-03-02 11:41:00,
2013-03-02 04:46:00,36.0,29.8,31.17,SSE,150,3.0,7.0,78,0.00,,,0.00,0.00,VWS V14.00,2013-03-02 11:46:00,
2013-03-02 04:51:00,36.0,30.1,31.17,SSE,157,3.0,5.0,79,0.00,,,0.00,0.00,VWS V14.00,2013-03-02 11:51:00,
2013-03-02 04:56:00,36.0,30.1,31.17,South,173,4.0,11.0,79,0.00,,,0.00,0.00,VWS V14.00,2013-03-02 11:56:00,
2013-03-02 05:01:00,36.3,30.4,31.17,SSE,160,4.0,11.0,79,0.00,,,0.00,0.00,VWS V14.00,2013-03-02 12:01:00,
2013-03-02 05:06:00,36.5,30.3,31.18,SSE,160,5.0,9.0,78,0.00,,,0.00,0.00,VWS V14.00,2013-03-02 12:06:00,
2013-03-02 05:11:00,36.5,30.3,31.18,SSE,159,8.0,9.0,78,0.00,,,0.00,0.00,VWS V14.00,2013-03-02 12:11:00,
2013-03-02 05:16:00,36.6,30.1,31.18,SSE,161,3.0,9.0,77,0.00,,,0.00,0.00,VWS V14.00,2013-03-02 12:16:00,
2013-03-02 05:21:00,36.5,30.0,31.19,SSE,160,3.0,6.0,77,0.00,,,0.00,0.00,VWS V14.00,2013-03-02 12:21:00,
2013-03-02 05:26:00,36.2,29.7,31.19,SSE,159,3.0,6.0,77,0.00,,,0.00,0.00,VWS V14.00,2013-03-02 12:26:00,
2013-03-02 05:31:00,36.0,29.8,31.19,SSE,159,1.0,6.0,78,0.00,,,0.00,0.00,VWS V14.00,2013-03-02 12:31:00,
2013-03-02 05:36:00,35.9,29.7,31.19,SSE,159,4.0,5.0,78,0.00,,,0.00,0.00,VWS V14.00,2013-03-02 12:36:00,
2013-03-02 05:41:00,35.7,29.5,31.20,SSE,159,0.0,5.0,78,0.00,,,0.00,0.00,VWS V14.00,2013-03-02 12:41:00,
2013-03-02 05:46:00,35.6,29.4,31.19,SSE,159,2.0,5.0,78,0.00,,,0.00,0.00,VWS V14.00,2013-03-02 12:46:00,
2013-03-02 05:51:00,35.5,29.3,31.20,SSE,159,2.0,3.0,78,0.00,,,0.00,0.00,VWS V14.00,2013-03-02 12:51:00,
2013-03-02 05:56:00,35.5,29.3,31.19,SSE,159,1.0,3.0,78,0.00,,,0.00,0.00,VWS V14.00,2013-03-02 12:56:00,
2013-03-02 06:01:00,35.6,29.4,31.19,SSE,159,1.0,3.0,78,0.00,,,0.00,0.00,VWS V14.00,2013-03-02 13:01:00,
2013-03-02 06:06:00,35.8,29.6,31.21,SSE,159,1.0,2.0,78,0.00,,,0.00,0.00,VWS V14.00,2013-03-02 13:06:00,
2013-03-02 06:11:00,35.9,29.4,31.21,SSE,159,1.0,2.0,77,0.00,,,0.00,0.00,VWS V14.00,2013-03-02 13:11:00,
2013-03-02 06:16:00,35.9,29.4,31.21,SSE,159,0.0,2.0,77,0.00,,,0.00,0.00,VWS V14.00,2013-03-02 13:16:00,
2013-03-02 06:21:00,35.8,29.0,31.22,SSE,159,0.0,0.0,76,0.00,,,0.00,0.00,VWS V14.00,2013-03-02 13:21:00,
2013-03-02 06:26:00,35.6,28.5,31.22,SSE,159,0.0,0.0,75,0.00,,,0.00,0.00,VWS V14.00,2013-03-02 13:26:00,
2013-03-02 06:31:00,35.0,27.9,31.22,SSE,159,0.0,2.0,75,0.00,,,0.00,0.00,VWS V14.00,2013-03-02 13:31:00,
2013-03-02 06:36:00,34.6,28.1,31.22,SSE,159,0.0,0.0,77,0.00,,,0.00,0.00,VWS V14.00,2013-03-02 13:36:00,
2013-03-02 06:41:00,34.4,28.3,31.22,SSE,159,0.0,0.0,78,0.00,,,0.00,0.00,VWS V14.00,2013-03-02 13:41:00,
2013-03-02 06:46:00,34.4,28.6,31.22,SSE,159,2.0,3.0,79,0.00,,,0.00,0.00,VWS V14.00,2013-03-02 13:46:00,
2013-03-02 06:51:00,34.3,28.5,31.22,SSE,159,2.0,4.0,79,0.00,,,0.00,0.00,VWS V14.00,2013-03-02 13:51:00,
2013-03-02 06:56:00,34.4,28.6,31.21,SSE,159,3.0,4.0,79,0.00,,,0.00,0.00,VWS V14.00,2013-03-02 13:56:00,
2013-03-02 07:01:00,34.4,28.6,31.21,SSE,159,5.0,5.0,79,0.00,,,0.00,0.00,VWS V14.00,2013-03-02 14:01:00,
2013-03-02 07:06:00,34.4,28.6,31.22,SSE,159,2.0,4.0,79,0.00,,,0.00,0.00,VWS V14.00,2013-03-02 14:06:00,
2013-03-02 07:11:00,34.5,28.4,31.22,SSE,159,0.0,4.0,78,0.00,,,0.00,0.00,VWS V14.00,2013-03-02 14:11:00,
2013-03-02 07:16:00,34.4,28.3,31.22,SSE,159,0.0,4.0,78,0.00,,,0.00,0.00,VWS V14.00,2013-03-02 14:16:00,
2013-03-02 07:21:00,34.4,28.3,31.22,SSE,159,0.0,1.0,78,0.00,,,0.00,5.00,VWS V14.00,2013-03-02 14:21:00,
2013-03-02 07:26:00,34.3,27.9,31.21,SSE,159,0.0,1.0,77,0.00,,,0.00,9.00,VWS V14.00,2013-03-02 14:26:00,
2013-03-02 07:31:00,33.9,27.8,31.22,SSE,159,0.0,1.0,78,0.00,,,0.00,12.00,VWS V14.00,2013-03-02 14:31:00,
2013-03-02 07:36:00,33.5,27.7,31.21,SSE,159,0.0,0.0,79,0.00,,,0.00,18.00,VWS V14.00,2013-03-02 14:36:00,
2013-03-02 07:41:00,33.2,27.7,31.22,SSE,159,0.0,0.0,80,0.00,,,0.00,19.00,VWS V14.00,2013-03-02 14:41:00,
2013-03-02 07:46:00,33.0,27.8,31.22,SSE,159,0.0,0.0,81,0.00,,,0.00,25.00,VWS V14.00,2013-03-02 14:46:00,
2013-03-02 07:51:00,33.0,27.8,31.22,SSE,159,0.0,0.0,81,0.00,,,0.00,28.00,VWS V14.00,2013-03-02 14:51:00,
2013-03-02 07:56:00,33.0,27.8,31.22,SSE,159,0.0,0.0,81,0.00,,,0.00,30.00,VWS V14.00,2013-03-02 14:56:00,
2013-03-02 08:01:00,32.8,27.6,31.22,SSE,159,0.0,0.0,81,0.00,,,0.00,35.00,VWS V14.00,2013-03-02 15:01:00,
2013-03-02 08:06:00,32.8,27.9,31.22,SSE,159,0.0,0.0,82,0.00,,,0.00,40.00,VWS V14.00,2013-03-02 15:06:00,
2013-03-02 08:11:00,32.8,27.9,31.22,SSE,159,0.0,0.0,82,0.00,,,0.00,51.00,VWS V14.00,2013-03-02 15:11:00,
2013-03-02 08:16:00,32.9,28.3,31.22,SSE,159,0.0,0.0,83,0.00,,,0.00,62.00,VWS V14.00,2013-03-02 15:16:00,
2013-03-02 08:21:00,33.1,28.5,31.21,SSE,159,0.0,0.0,83,0.00,,,0.00,67.00,VWS V14.00,2013-03-02 15:21:00,
2013-03-02 08:26:00,33.3,29.0,31.21,SSE,159,1.0,2.0,84,0.00,,,0.00,77.00,VWS V14.00,2013-03-02 15:26:00,
2013-03-02 08:31:00,33.5,29.2,31.21,SSE,159,1.0,2.0,84,0.00,,,0.00,67.00,VWS V14.00,2013-03-02 15:31:00,
2013-03-02 08:36:00,33.4,29.1,31.21,SSE,159,0.0,0.0,84,0.00,,,0.00,79.00,VWS V14.00,2013-03-02 15:36:00,
2013-03-02 08:41:00,33.3,29.0,31.21,SSE,159,1.0,2.0,84,0.00,,,0.00,91.00,VWS V14.00,2013-03-02 15:41:00,
2013-03-02 08:46:00,33.3,29.0,31.21,SSE,159,0.0,2.0,84,0.00,,,0.00,95.00,VWS V14.00,2013-03-02 15:46:00,
2013-03-02 08:51:00,33.5,29.5,31.20,SSE,159,0.0,0.0,85,0.00,,,0.00,100.00,VWS V14.00,2013-03-02 15:51:00,
2013-03-02 08:56:00,33.9,29.9,31.20,SSE,159,0.0,0.0,85,0.00,,,0.00,109.00,VWS V14.00,2013-03-02 15:56:00,
2013-03-02 09:01:00,34.2,30.2,31.20,SSE,159,0.0,0.0,85,0.00,,,0.00,120.00,VWS V14.00,2013-03-02 16:01:00,
2013-03-02 09:06:00,34.4,30.4,31.20,SSE,159,0.0,0.0,85,0.00,,,0.00,125.00,VWS V14.00,2013-03-02 16:06:00,
2013-03-02 09:11:00,34.9,30.9,31.19,SSE,159,0.0,1.0,85,0.00,,,0.00,137.00,VWS V14.00,2013-03-02 16:11:00,
2013-03-02 09:16:00,35.4,31.1,31.19,SSE,159,0.0,3.0,84,0.00,,,0.00,132.00,VWS V14.00,2013-03-02 16:16:00,
2013-03-02 09:21:00,36.4,31.7,31.18,SSE,159,2.0,2.0,83,0.00,,,0.00,160.00,VWS V14.00,2013-03-02 16:21:00,
2013-03-02 09:26:00,37.3,32.6,31.18,SSE,159,0.0,3.0,83,0.00,,,0.00,158.00,VWS V14.00,2013-03-02 16:26:00,
2013-03-02 09:31:00,37.9,32.6,31.17,SSE,159,3.0,3.0,81,0.00,,,0.00,179.00,VWS V14.00,2013-03-02 16:31:00,
2013-03-02 09:36:00,38.2,32.3,31.17,SSE,159,2.0,5.0,79,0.00,,,0.00,169.00,VWS V14.00,2013-03-02 16:36:00,
2013-03-02 09:41:00,38.4,32.5,31.16,SSE,159,0.0,5.0,79,0.00,,,0.00,178.00,VWS V14.00,2013-03-02 16:41:00,
2013-03-02 09:46:00,38.7,32.8,31.16,SSE,159,0.0,5.0,79,0.00,,,0.00,172.00,VWS V14.00,2013-03-02 16:46:00,
2013-03-02 09:51:00,39.0,33.4,31.16,SSE,159,3.0,4.0,80,0.00,,,0.00,179.00,VWS V14.00,2013-03-02 16:51:00,
2013-03-02 09:56:00,39.6,33.6,31.15,SSE,159,3.0,4.0,79,0.00,,,0.00,158.00,VWS V14.00,2013-03-02 16:56:00,
2013-03-02 10:01:00,39.9,33.3,31.14,SSE,159,3.0,5.0,77,0.00,,,0.00,144.00,VWS V14.00,2013-03-02 17:01:00,
2013-03-02 10:06:00,40.0,33.4,31.15,SSE,159,2.0,4.0,77,0.00,,,0.00,232.00,VWS V14.00,2013-03-02 17:06:00,
2013-03-02 10:11:00,40.4,33.5,31.15,SSE,159,4.0,5.0,76,0.00,,,0.00,327.00,VWS V14.00,2013-03-02 17:11:00,
2013-03-02 10:16:00,40.7,34.1,31.14,NNW,346,3.0,5.0,77,0.00,,,0.00,357.00,VWS V14.00,2013-03-02 17:16:00,
2013-03-02 10:21:00,40.9,34.3,31.14,NNW,346,2.0,4.0,77,0.00,,,0.00,237.00,VWS V14.00,2013-03-02 17:21:00,
2013-03-02 10:26:00,40.8,33.8,31.14,NNW,348,1.0,5.0,76,0.00,,,0.00,234.00,VWS V14.00,2013-03-02 17:26:00,
2013-03-02 10:31:00,40.9,33.9,31.14,NNW,348,3.0,5.0,76,0.00,,,0.00,253.00,VWS V14.00,2013-03-02 17:31:00,
2013-03-02 10:36:00,41.1,33.8,31.13,NNW,348,3.0,4.0,75,0.00,,,0.00,288.00,VWS V14.00,2013-03-02 17:36:00,
2013-03-02 10:41:00,41.3,34.0,31.13,NNW,348,4.0,4.0,75,0.00,,,0.00,287.00,VWS V14.00,2013-03-02 17:41:00,
2013-03-02 10:46:00,41.8,34.1,31.12,NNW,348,2.0,4.0,74,0.00,,,0.00,279.00,VWS V14.00,2013-03-02 17:46:00,
2013-03-02 10:51:00,42.3,34.3,31.12,NNW,348,3.0,4.0,73,0.00,,,0.00,279.00,VWS V14.00,2013-03-02 17:51:00,
2013-03-02 10:56:00,42.7,35.0,31.11,NNW,348,2.0,4.0,74,0.00,,,0.00,251.00,VWS V14.00,2013-03-02 17:56:00,
2013-03-02 11:01:00,43.2,34.8,31.11,NNW,348,2.0,4.0,72,0.00,,,0.00,250.00,VWS V14.00,2013-03-02 18:01:00,
2013-03-02 11:06:00,43.7,35.3,31.12,NNW,348,3.0,4.0,72,0.00,,,0.00,255.00,VWS V14.00,2013-03-02 18:06:00,
2013-03-02 11:11:00,44.1,35.0,31.11,NNW,348,3.0,4.0,70,0.00,,,0.00,271.00,VWS V14.00,2013-03-02 18:11:00,
2013-03-02 11:16:00,44.5,35.0,31.10,NNW,348,3.0,4.0,69,0.00,,,0.00,348.00,VWS V14.00,2013-03-02 18:16:00,
2013-03-02 11:21:00,45.0,35.1,31.10,NNW,327,4.0,5.0,68,0.00,,,0.00,322.00,VWS V14.00,2013-03-02 18:21:00,
2013-03-02 11:26:00,45.3,35.0,31.10,NNW,327,4.0,5.0,67,0.00,,,0.00,373.00,VWS V14.00,2013-03-02 18:26:00,
2013-03-02 11:31:00,45.7,34.6,31.10,NNW,348,3.0,5.0,65,0.00,,,0.00,369.00,VWS V14.00,2013-03-02 18:31:00,
2013-03-02 11:36:00,46.1,34.6,31.10,NNW,348,3.0,4.0,64,0.00,,,0.00,410.00,VWS V14.00,2013-03-02 18:36:00,
2013-03-02 11:41:00,46.5,35.0,31.08,NNW,348,3.0,4.0,64,0.00,,,0.00,406.00,VWS V14.00,2013-03-02 18:41:00,
2013-03-02 11:46:00,47.1,35.6,31.08,North,349,4.0,5.0,64,0.00,,,0.00,439.00,VWS V14.00,2013-03-02 18:46:00,
2013-03-02 11:51:00,47.7,36.5,31.08,North,349,2.0,5.0,65,0.00,,,0.00,480.00,VWS V14.00,2013-03-02 18:51:00,
2013-03-02 11:56:00,48.3,36.3,31.08,North,349,2.0,5.0,63,0.00,,,0.00,313.00,VWS V14.00,2013-03-02 18:56:00,
2013-03-02 12:01:00,48.8,36.4,31.06,North,349,3.0,5.0,62,0.00,,,0.00,396.00,VWS V14.00,2013-03-02 19:01:00,
2013-03-02 12:06:00,49.2,35.5,31.06,North,349,2.0,4.0,59,0.00,,,0.00,343.00,VWS V14.00,2013-03-02 19:06:00,
2013-03-02 12:11:00,49.5,36.2,31.05,North,349,3.0,5.0,60,0.00,,,0.00,394.00,VWS V14.00,2013-03-02 19:11:00,
2013-03-02 12:16:00,49.8,36.1,31.05,NNW,336,3.0,6.0,59,0.00,,,0.00,464.00,VWS V14.00,2013-03-02 19:16:00,
2013-03-02 12:21:00,50.1,36.3,31.05,NNW,336,3.0,5.0,59,0.00,,,0.00,434.00,VWS V14.00,2013-03-02 19:21:00,
2013-03-02 12:26:00,50.5,35.8,31.05,NNW,336,5.0,5.0,57,0.00,,,0.00,438.00,VWS V14.00,2013-03-02 19:26:00,
2013-03-02 12:31:00,50.9,36.2,31.04,NNW,336,0.0,5.0,57,0.00,,,0.00,418.00,VWS V14.00,2013-03-02 19:31:00,
2013-03-02 12:36:00,51.2,36.1,31.04,NNW,336,0.0,1.0,56,0.00,,,0.00,410.00,VWS V14.00,2013-03-02 19:36:00,
2013-03-02 12:41:00,51.6,36.4,31.02,NNW,336,1.0,3.0,56,0.00,,,0.00,436.00,VWS V14.00,2013-03-02 19:41:00,
2013-03-02 12:46:00,52.1,36.9,31.02,NNW,336,0.0,3.0,56,0.00,,,0.00,408.00,VWS V14.00,2013-03-02 19:46:00,
2013-03-02 12:51:00,52.7,36.5,31.02,NNW,336,0.0,3.0,54,0.00,,,0.00,380.00,VWS V14.00,2013-03-02 19:51:00,
2013-03-02 12:56:00,53.2,36.5,31.01,NNW,336,2.0,4.0,53,0.00,,,0.00,348.00,VWS V14.00,2013-03-02 19:56:00,
2013-03-02 13:01:00,53.7,37.5,31.00,NNW,336,0.0,4.0,54,0.00,,,0.00,327.00,VWS V14.00,2013-03-02 20:01:00,
2013-03-02 13:06:00,54.1,35.4,30.99,NNW,336,1.0,3.0,49,0.00,,,0.00,339.00,VWS V14.00,2013-03-02 20:06:00,
2013-03-02 13:11:00,54.6,35.8,30.97,NNW,336,0.0,3.0,49,0.00,,,0.00,415.00,VWS V14.00,2013-03-02 20:11:00,
2013-03-02 13:16:00,55.1,35.2,30.97,NNW,336,1.0,3.0,47,0.00,,,0.00,383.00,VWS V14.00,2013-03-02 20:16:00,
2013-03-02 13:21:00,55.7,35.3,30.96,NNW,336,0.0,0.0,46,0.00,,,0.00,352.00,VWS V14.00,2013-03-02 20:21:00,
2013-03-02 13:26:00,56.2,34.0,30.96,NNW,336,2.0,3.0,43,0.00,,,0.00,387.00,VWS V14.00,2013-03-02 20:26:00,
2013-03-02 13:31:00,56.8,34.6,30.95,NNW,336,2.0,3.0,43,0.00,,,0.00,348.00,VWS V14.00,2013-03-02 20:31:00,
2013-03-02 13:36:00,57.2,36.6,30.95,NW,319,4.0,10.0,46,0.00,,,0.00,345.00,VWS V14.00,2013-03-02 20:36:00,
2013-03-02 13:41:00,56.9,36.9,30.94,NNW,329,7.0,10.0,47,0.00,,,0.00,279.00,VWS V14.00,2013-03-02 20:41:00,
2013-03-02 13:46:00,56.5,36.5,30.94,NNW,337,5.0,10.0,47,0.00,,,0.00,315.00,VWS V14.00,2013-03-02 20:46:00,
2013-03-02 13:51:00,56.2,36.8,30.94,North,349,6.0,9.0,48,0.00,,,0.00,381.00,VWS V14.00,2013-03-02 20:51:00,
2013-03-02 13:56:00,56.1,36.7,30.94,NNW,346,6.0,10.0,48,0.00,,,0.00,448.00,VWS V14.00,2013-03-02 20:56:00,
2013-03-02 14:01:00,55.9,37.0,30.94,North,351,6.0,10.0,49,0.00,,,0.00,371.00,VWS V14.00,2013-03-02 21:01:00,
2013-03-02 14:06:00,55.8,36.4,30.94,North,360,4.0,9.0,48,0.00,,,0.00,357.00,VWS V14.00,2013-03-02 21:06:00,
2013-03-02 14:11:00,55.6,35.7,30.94,North,350,7.0,10.0,47,0.00,,,0.00,381.00,VWS V14.00,2013-03-02 21:11:00,
2013-03-02 14:16:00,55.5,35.6,30.94,NNW,346,6.0,12.0,47,0.00,,,0.00,352.00,VWS V14.00,2013-03-02 21:16:00,
2013-03-02 14:21:00,55.1,36.3,30.95,North,355,3.0,9.0,49,0.00,,,0.00,323.00,VWS V14.00,2013-03-02 21:21:00,
2013-03-02 14:26:00,55.0,36.7,30.94,North,350,7.0,11.0,50,0.00,,,0.00,373.00,VWS V14.00,2013-03-02 21:26:00,
2013-03-02 14:32:00,54.8,36.0,30.94,North,355,5.0,11.0,49,0.00,,,0.00,323.00,VWS V14.00,2013-03-02 21:32:00,
2013-03-02 14:37:00,54.7,36.9,30.94,North,355,6.0,8.0,51,0.00,,,0.00,306.00,VWS V14.00,2013-03-02 21:37:00,
2013-03-02 14:42:00,54.5,36.3,30.93,North,355,6.0,9.0,50,0.00,,,0.00,315.00,VWS V14.00,2013-03-02 21:42:00,
2013-03-02 14:47:00,54.4,36.7,30.93,North,355,5.0,9.0,51,0.00,,,0.00,316.00,VWS V14.00,2013-03-02 21:47:00,
2013-03-02 14:52:00,54.4,36.2,30.93,NNW,348,4.0,7.0,50,0.00,,,0.00,318.00,VWS V14.00,2013-03-02 21:52:00,
2013-03-02 14:57:00,54.6,35.8,30.93,NNW,348,4.0,7.0,49,0.00,,,0.00,287.00,VWS V14.00,2013-03-02 21:57:00,
2013-03-02 15:02:00,54.7,36.4,30.92,NNW,346,6.0,7.0,50,0.00,,,0.00,264.00,VWS V14.00,2013-03-02 22:02:00,
2013-03-02 15:07:00,54.8,37.0,30.92,NNW,344,6.0,9.0,51,0.00,,,0.00,257.00,VWS V14.00,2013-03-02 22:07:00,
2013-03-02 15:12:00,54.8,36.5,30.92,North,349,6.0,9.0,50,0.00,,,0.00,221.00,VWS V14.00,2013-03-02 22:12:00,
2013-03-02 15:17:00,54.7,35.9,30.92,NNW,337,5.0,9.0,49,0.00,,,0.00,220.00,VWS V14.00,2013-03-02 22:17:00,
2013-03-02 15:22:00,54.6,35.8,30.91,NNW,342,6.0,7.0,49,0.00,,,0.00,216.00,VWS V14.00,2013-03-02 22:22:00,
2013-03-02 15:27:00,54.5,35.8,30.91,NNW,343,4.0,7.0,49,0.00,,,0.00,229.00,VWS V14.00,2013-03-02 22:27:00,
2013-03-02 15:32:00,54.6,35.8,30.90,NNW,342,4.0,7.0,49,0.00,,,0.00,223.00,VWS V14.00,2013-03-02 22:32:00,
2013-03-02 15:37:00,54.6,36.3,30.90,NNW,346,0.0,6.0,50,0.00,,,0.00,229.00,VWS V14.00,2013-03-02 22:37:00,
2013-03-02 15:42:00,54.7,35.9,30.89,NNW,346,2.0,6.0,49,0.00,,,0.00,221.00,VWS V14.00,2013-03-02 22:42:00,
2013-03-02 15:47:00,54.9,36.1,30.89,NNW,346,0.0,6.0,49,0.00,,,0.00,204.00,VWS V14.00,2013-03-02 22:47:00,
2013-03-02 15:52:00,55.0,36.2,30.89,NNW,346,3.0,5.0,49,0.00,,,0.00,199.00,VWS V14.00,2013-03-02 22:52:00,
2013-03-02 15:57:00,55.1,35.8,30.89,NNW,346,4.0,5.0,48,0.00,,,0.00,169.00,VWS V14.00,2013-03-02 22:57:00,
2013-03-02 16:02:00,55.2,36.4,30.88,NNW,346,3.0,5.0,49,0.00,,,0.00,169.00,VWS V14.00,2013-03-02 23:02:00,
2013-03-02 16:07:00,55.2,36.9,30.89,NNW,346,3.0,4.0,50,0.00,,,0.00,155.00,VWS V14.00,2013-03-02 23:07:00,
2013-03-02 16:12:00,55.1,36.8,30.89,NNW,346,4.0,6.0,50,0.00,,,0.00,139.00,VWS V14.00,2013-03-02 23:12:00,
2013-03-02 16:17:00,55.0,36.7,30.89,NNW,346,3.0,6.0,50,0.00,,,0.00,139.00,VWS V14.00,2013-03-02 23:17:00,
2013-03-02 16:22:00,54.8,37.0,30.89,NNW,346,4.0,5.0,51,0.00,,,0.00,148.00,VWS V14.00,2013-03-02 23:22:00,
2013-03-02 16:27:00,54.8,37.0,30.89,NNW,346,2.0,5.0,51,0.00,,,0.00,148.00,VWS V14.00,2013-03-02 23:27:00,
2013-03-02 16:32:00,54.7,36.4,30.89,NNW,346,2.0,5.0,50,0.00,,,0.00,135.00,VWS V14.00,2013-03-02 23:32:00,
2013-03-02 16:37:00,54.7,35.9,30.89,NNW,346,4.0,5.0,49,0.00,,,0.00,127.00,VWS V14.00,2013-03-02 23:37:00,
2013-03-02 16:42:00,54.7,36.9,30.88,NNW,346,4.0,5.0,51,0.00,,,0.00,130.00,VWS V14.00,2013-03-02 23:42:00,
2013-03-02 16:47:00,54.5,37.2,30.88,NNW,346,3.0,6.0,52,0.00,,,0.00,118.00,VWS V14.00,2013-03-02 23:47:00,
2013-03-02 16:52:00,54.3,37.1,30.88,NNW,347,2.0,6.0,52,0.00,,,0.00,105.00,VWS V14.00,2013-03-02 23:52:00,
2013-03-02 16:57:00,54.1,37.4,30.87,NNW,346,0.0,6.0,53,0.00,,,0.00,90.00,VWS V14.00,2013-03-02 23:57:00,
2013-03-02 17:02:00,54.0,37.8,30.87,NNW,347,0.0,6.0,54,0.00,,,0.00,84.00,VWS V14.00,2013-03-03 00:02:00,
2013-03-02 17:07:00,53.8,37.1,30.87,NNW,347,2.0,2.0,53,0.00,,,0.00,79.00,VWS V14.00,2013-03-03 00:07:00,
2013-03-02 17:12:00,53.6,37.4,30.87,NNW,346,0.0,2.0,54,0.00,,,0.00,67.00,VWS V14.00,2013-03-03 00:12:00,
2013-03-02 17:17:00,53.6,37.4,30.87,NNW,347,0.0,2.0,54,0.00,,,0.00,53.00,VWS V14.00,2013-03-03 00:17:00,
2013-03-02 17:22:00,53.5,37.3,30.86,NNW,347,0.0,0.0,54,0.00,,,0.00,54.00,VWS V14.00,2013-03-03 00:22:00,
2013-03-02 17:27:00,53.5,38.7,30.86,NNW,347,2.0,2.0,57,0.00,,,0.00,47.00,VWS V14.00,2013-03-03 00:27:00,
2013-03-02 17:32:00,53.2,37.0,30.87,NNW,347,0.0,2.0,54,0.00,,,0.00,44.00,VWS V14.00,2013-03-03 00:32:00,
2013-03-02 17:37:00,53.0,37.3,30.87,NNW,347,0.0,1.0,55,0.00,,,0.00,33.00,VWS V14.00,2013-03-03 00:37:00,
2013-03-02 17:42:00,52.8,37.5,30.87,NNW,346,0.0,1.0,56,0.00,,,0.00,26.00,VWS V14.00,2013-03-03 00:42:00,
2013-03-02 17:47:00,52.5,36.8,30.86,NNW,346,2.0,2.0,55,0.00,,,0.00,25.00,VWS V14.00,2013-03-03 00:47:00,
2013-03-02 17:52:00,52.1,36.9,30.86,NNW,346,0.0,4.0,56,0.00,,,0.00,21.00,VWS V14.00,2013-03-03 00:52:00,
2013-03-02 17:57:00,51.8,36.2,30.86,NNW,347,0.0,4.0,55,0.00,,,0.00,18.00,VWS V14.00,2013-03-03 00:57:00,
2013-03-02 18:02:00,51.6,36.4,30.86,NNW,346,0.0,4.0,56,0.00,,,0.00,14.00,VWS V14.00,2013-03-03 01:02:00,
2013-03-02 18:07:00,51.5,36.8,30.86,NNW,347,0.0,0.0,57,0.00,,,0.00,9.00,VWS V14.00,2013-03-03 01:07:00,
2013-03-02 18:12:00,51.4,36.7,30.88,NNW,346,0.0,0.0,57,0.00,,,0.00,0.00,VWS V14.00,2013-03-03 01:12:00,
2013-03-02 18:17:00,51.2,36.5,30.87,NNW,346,0.0,1.0,57,0.00,,,0.00,0.00,VWS V14.00,2013-03-03 01:17:00,
2013-03-02 18:22:00,50.8,36.6,30.87,NNW,347,1.0,2.0,58,0.00,,,0.00,0.00,VWS V14.00,2013-03-03 01:22:00,
2013-03-02 18:27:00,50.5,35.8,30.87,NNW,347,0.0,3.0,57,0.00,,,0.00,0.00,VWS V14.00,2013-03-03 01:27:00,
2013-03-02 18:32:00,50.3,36.1,30.87,NNW,347,2.0,3.0,58,0.00,,,0.00,0.00,VWS V14.00,2013-03-03 01:32:00,
2013-03-02 18:37:00,50.1,36.8,30.87,NNW,347,0.0,0.0,60,0.00,,,0.00,0.00,VWS V14.00,2013-03-03 01:37:00,
2013-03-02 18:42:00,49.9,36.6,30.87,NNW,347,0.0,0.0,60,0.00,,,0.00,0.00,VWS V14.00,2013-03-03 01:42:00,
2013-03-02 18:47:00,49.7,36.0,30.87,NNW,346,0.0,0.0,59,0.00,,,0.00,0.00,VWS V14.00,2013-03-03 01:47:00,
2013-03-02 18:52:00,49.3,36.0,30.88,NNW,346,0.0,0.0,60,0.00,,,0.00,0.00,VWS V14.00,2013-03-03 01:52:00,
2013-03-02 18:57:00,48.7,36.7,30.88,NNW,346,2.0,3.0,63,0.00,,,0.00,0.00,VWS V14.00,2013-03-03 01:57:00,
2013-03-02 19:02:00,48.3,36.3,30.88,NNW,347,2.0,4.0,63,0.00,,,0.00,0.00,VWS V14.00,2013-03-03 02:02:00,
2013-03-02 19:07:00,48.2,35.8,30.88,South,171,2.0,5.0,62,0.00,,,0.00,0.00,VWS V14.00,2013-03-03 02:07:00,
2013-03-02 19:12:00,48.4,36.0,30.88,SSE,168,2.0,5.0,62,0.00,,,0.00,0.00,VWS V14.00,2013-03-03 02:12:00,
2013-03-02 19:17:00,48.5,36.1,30.87,SSE,153,4.0,7.0,62,0.00,,,0.00,0.00,VWS V14.00,2013-03-03 02:17:00,
2013-03-02 19:22:00,48.7,36.3,30.87,SSE,160,3.0,6.0,62,0.00,,,0.00,0.00,VWS V14.00,2013-03-03 02:22:00,
2013-03-02 19:27:00,49.0,36.2,30.87,SSE,165,3.0,7.0,61,0.00,,,0.00,0.00,VWS V14.00,2013-03-03 02:27:00,
2013-03-02 19:32:00,49.2,36.3,30.87,South,169,2.0,7.0,61,0.00,,,0.00,0.00,VWS V14.00,2013-03-03 02:32:00,
2013-03-02 19:37:00,49.2,35.9,30.87,South,188,0.0,2.0,60,0.00,,,0.00,0.00,VWS V14.00,2013-03-03 02:37:00,
2013-03-02 19:42:00,49.2,35.9,30.86,South,187,0.0,2.0,60,0.00,,,0.00,0.00,VWS V14.00,2013-03-03 02:42:00,
2013-03-02 19:47:00,49.2,35.9,30.86,South,188,0.0,2.0,60,0.00,,,0.00,0.00,VWS V14.00,2013-03-03 02:47:00,
2013-03-02 19:52:00,49.2,36.3,30.86,WSW,251,1.0,5.0,61,0.00,,,0.00,0.00,VWS V14.00,2013-03-03 02:52:00,
2013-03-02 19:57:00,49.0,36.2,30.86,WSW,250,0.0,5.0,61,0.00,,,0.00,0.00,VWS V14.00,2013-03-03 02:57:00,
2013-03-02 20:02:00,48.6,36.2,30.86,WSW,251,2.0,5.0,62,0.00,,,0.00,0.00,VWS V14.00,2013-03-03 03:02:00,
2013-03-02 20:07:00,48.1,35.3,30.87,West,264,2.0,3.0,61,0.00,,,0.00,0.00,VWS V14.00,2013-03-03 03:07:00,
2013-03-02 20:12:00,47.7,35.3,30.86,West,264,0.0,3.0,62,0.00,,,0.00,0.00,VWS V14.00,2013-03-03 03:12:00,
2013-03-02 20:17:00,47.5,35.5,30.86,West,265,0.0,3.0,63,0.00,,,0.00,0.00,VWS V14.00,2013-03-03 03:17:00,
2013-03-02 20:22:00,47.1,35.2,30.87,West,265,0.0,2.0,63,0.00,,,0.00,0.00,VWS V14.00,2013-03-03 03:22:00,
2013-03-02 20:27:00,46.8,35.3,30.87,West,264,0.0,2.0,64,0.00,,,0.00,0.00,VWS V14.00,2013-03-03 03:27:00,
2013-03-02 20:32:00,46.6,35.9,30.87,West,264,0.0,2.0,66,0.00,,,0.00,0.00,VWS V14.00,2013-03-03 03:32:00,
2013-03-02 20:37:00,46.4,35.3,30.87,West,264,0.0,0.0,65,0.00,,,0.00,0.00,VWS V14.00,2013-03-03 03:37:00,
2013-03-02 20:42:00,46.3,34.8,30.86,West,264,0.0,0.0,64,0.00,,,0.00,0.00,VWS V14.00,2013-03-03 03:42:00,
2013-03-02 20:47:00,46.2,34.7,30.86,West,264,0.0,0.0,64,0.00,,,0.00,0.00,VWS V14.00,2013-03-03 03:47:00,
2013-03-02 20:52:00,46.1,35.0,30.86,West,264,0.0,0.0,65,0.00,,,0.00,0.00,VWS V14.00,2013-03-03 03:52:00,
2013-03-02 20:57:00,46.2,36.2,30.85,SSE,166,2.0,4.0,68,0.00,,,0.00,0.00,VWS V14.00,2013-03-03 03:57:00,
2013-03-02 21:02:00,46.5,36.9,30.85,SSE,160,4.0,7.0,69,0.00,,,0.00,0.00,VWS V14.00,2013-03-03 04:02:00,
2013-03-02 21:07:00,46.9,36.9,30.82,SSE,163,4.0,6.0,68,0.00,,,0.00,0.00,VWS V14.00,2013-03-03 04:07:00,
2013-03-02 21:12:00,47.1,37.1,30.82,SSE,160,4.0,7.0,68,0.00,,,0.00,0.00,VWS V14.00,2013-03-03 04:12:00,
2013-03-02 21:17:00,47.3,37.3,30.82,SSE,167,4.0,7.0,68,0.00,,,0.00,0.00,VWS V14.00,2013-03-03 04:17:00,
2013-03-02 21:22:00,47.4,37.4,30.82,SSE,165,3.0,5.0,68,0.00,,,0.00,0.00,VWS V14.00,2013-03-03 04:22:00,
2013-03-02 21:27:00,47.5,37.5,30.81,SSE,165,0.0,7.0,68,0.00,,,0.00,0.00,VWS V14.00,2013-03-03 04:27:00,
2013-03-02 21:32:00,47.5,37.5,30.80,SSE,164,3.0,7.0,68,0.00,,,0.00,0.00,VWS V14.00,2013-03-03 04:32:00,
2013-03-02 21:37:00,47.5,37.5,30.81,SSE,165,0.0,5.0,68,0.00,,,0.00,0.00,VWS V14.00,2013-03-03 04:37:00,
2013-03-02 21:42:00,47.4,37.4,30.82,SSE,165,0.0,5.0,68,0.00,,,0.00,0.00,VWS V14.00,2013-03-03 04:42:00,
2013-03-02 21:47:00,47.3,36.9,30.82,SSE,164,0.0,5.0,67,0.00,,,0.00,0.00,VWS V14.00,2013-03-03 04:47:00,
2013-03-02 21:52:00,47.2,36.8,30.82,SSE,165,2.0,2.0,67,0.00,,,0.00,0.00,VWS V14.00,2013-03-03 04:52:00,
2013-03-02 21:57:00,46.9,36.5,30.82,SSE,165,3.0,4.0,67,0.00,,,0.00,0.00,VWS V14.00,2013-03-03 04:57:00,
2013-03-02 22:00:00,46.9,36.5,30.82,SSE,165,0.0,4.0,67,0.00,,,0.00,0.00,VWS V14.00,2013-03-03 05:00:00,
2013-03-02 22:05:00,46.8,36.8,30.80,SSE,165,0.0,4.0,68,0.00,,,0.00,0.00,VWS V14.00,2013-03-03 05:05:00,
2013-03-02 22:10:00,46.6,35.9,30.80,North,355,5.0,7.0,66,0.00,,,0.00,0.00,VWS V14.00,2013-03-03 05:10:00,
2013-03-02 22:15:00,46.4,36.0,30.81,North,355,5.0,7.0,67,0.00,,,0.00,0.00,VWS V14.00,2013-03-03 05:15:00,
2013-03-02 22:20:00,46.1,36.1,30.81,North,355,0.0,2.0,68,0.00,,,0.00,0.00,VWS V14.00,2013-03-03 05:20:00,
2013-03-02 22:25:00,45.8,36.2,30.81,North,355,4.0,4.0,69,0.00,,,0.00,0.00,VWS V14.00,2013-03-03 05:25:00,
2013-03-02 22:30:00,45.2,36.7,30.80,North,5,6.0,9.0,72,0.00,,,0.00,0.00,VWS V14.00,2013-03-03 05:30:00,
2013-03-02 22:35:00,44.6,36.8,30.80,North,349,0.0,0.0,74,0.00,,,0.00,0.00,VWS V14.00,2013-03-03 05:35:00,
2013-03-02 22:40:00,44.3,36.9,30.80,North,349,1.0,3.0,75,0.00,,,0.00,0.00,VWS V14.00,2013-03-03 05:40:00,
2013-03-02 22:45:00,43.8,36.7,30.81,North,349,3.0,4.0,76,0.00,,,0.00,0.00,VWS V14.00,2013-03-03 05:45:00,
2013-03-02 22:50:00,43.3,37.2,30.81,North,349,3.0,3.0,79,0.00,,,0.00,0.00,VWS V14.00,2013-03-03 05:50:00,
2013-03-02 22:55:00,42.8,37.1,30.81,NNW,348,3.0,5.0,80,0.00,,,0.00,0.00,VWS V14.00,2013-03-03 05:55:00,
2013-03-02 23:00:00,42.5,37.4,30.81,NNW,345,4.0,5.0,82,0.00,,,0.00,0.00,VWS V14.00,2013-03-03 06:00:00,
2013-03-02 23:05:00,42.1,37.3,30.79,NNW,346,4.0,5.0,83,0.01,,,0.01,0.00,VWS V14.00,2013-03-03 06:05:00,
2013-03-02 23:10:00,41.9,37.4,30.79,NNW,346,2.0,5.0,84,0.01,,,0.01,0.00,VWS V14.00,2013-03-03 06:10:00,
2013-03-02 23:15:00,41.6,37.4,30.79,NNW,346,2.0,5.0,85,0.01,,,0.01,0.00,VWS V14.00,2013-03-03 06:15:00,
2013-03-02 23:20:00,41.5,37.6,30.79,NNW,346,1.0,2.0,86,0.01,,,0.01,0.00,VWS V14.00,2013-03-03 06:20:00,
2013-03-02 23:25:00,41.4,37.5,30.79,NNW,346,1.0,3.0,86,0.01,,,0.01,0.00,VWS V14.00,2013-03-03 06:25:00,
2013-03-02 23:31:00,41.2,37.6,30.79,NNW,346,3.0,3.0,87,0.01,,,0.01,0.00,VWS V14.00,2013-03-03 06:31:00,
2013-03-02 23:36:00,41.1,37.5,30.79,NNW,346,0.0,0.0,87,0.01,,,0.01,0.00,VWS V14.00,2013-03-03 06:36:00,
2013-03-02 23:41:00,41.0,37.4,30.78,NNW,346,0.0,0.0,87,0.01,,,0.01,0.00,VWS V14.00,2013-03-03 06:41:00,
2013-03-02 23:45:00,40.9,37.3,30.78,NNW,346,0.0,0.0,87,0.01,,,0.01,0.00,VWS V14.00,2013-03-03 06:45:00,
2013-03-02 23:50:00,40.9,37.6,30.78,NNW,346,0.0,0.0,88,0.01,,,0.01,0.00,VWS V14.00,2013-03-03 06:50:00,
2013-03-02 23:56:00,40.8,37.5,30.78,NNW,346,0.0,0.0,88,0.01,,,0.01,0.00,VWS V14.00,2013-03-03 06:56:00,